Weather History for Tekamah, NE

Change the Weather History Date:

Saturday, March 31, 2012

  Actual Average Record
Temperature  
Mean Temperature 70 °F -  
Max Temperature 91 °F 58 °F 91 °F (2012)
Min Temperature 50 °F 33 °F 9 °F (1987)
Cooling Degree Days 6    
Growing Degree Days 20 (Base 50)    
Moisture  
Dew Point 48 °F    
Average Humidity 63    
Maximum Humidity 94    
Minimum Humidity 15    
Precipitation  
Precipitation 0.00 in - - ()
Sea Level Pressure  
Sea Level Pressure 29.66 in    
Wind  
Wind Speed 7 mph (SSW)    
Max Wind Speed 21 mph    
Max Gust Speed 28 mph    
Visibility 7 miles    
Events      
Averages and records for this station are not official NWS values.
T = Trace of Precipitation, MM = Missing Value Source: NWS Daily Summary

Daily Weather History Graph

Daily Weather History Graph

Search for Another Location

Airport:

Trip Planner

Search our weather history database for the weather conditions in past years. The results will help you decide how hot, cold, wet, or windy it might be!

Date:

Astronomy

Mar. 31, 2012 Rise Set
Actual Time 7:08 AM CDT 7:49 PM CDT
Civil Twilight 6:40 AM CDT 8:17 PM CDT
Nautical Twilight 6:07 AM CDT 8:51 PM CDT
Astronomical Twilight 5:32 AM CDT 9:25 PM CDT
Moon 1:13 PM CDT (3/31) 3:11 AM CDT (3/31)
Length of Visible Light 13h 37m
Length of Day
12h 41m
First Quarter, 59% of the Moon is Illuminated
Mar 31
First Quarter
Apr 6
Full
Apr 13
Last Quarter
Apr 21
New
Apr 29
First Quarter

Hourly Weather History & Observations

Time (CDT) Temp. Heat Index Dew Point Humidity Pressure Visibility Wind Dir Wind Speed Gust Speed Precip Events Conditions
12:54 AM 55.0 °F - 51.1 °F 86% 29.71 in 9.0 mi SSE 8.1 mph - N/A   Clear
1:54 AM 54.0 °F - 50.0 °F 86% 29.72 in 8.0 mi Calm Calm - N/A   Clear
2:54 AM 55.0 °F - 51.1 °F 86% 29.71 in 7.0 mi South 3.5 mph - N/A   Clear
3:54 AM 52.0 °F - 50.0 °F 93% 29.69 in 5.0 mi SSE 6.9 mph - N/A   Clear
4:54 AM 51.1 °F - 48.9 °F 92% 29.71 in 4.0 mi SSW 4.6 mph - N/A   Clear
5:54 AM 51.1 °F - 48.0 °F 89% 29.71 in 6.0 mi SSE 4.6 mph - N/A   Clear
6:54 AM 50.0 °F - 48.0 °F 93% 29.73 in 4.0 mi SSE 5.8 mph - N/A   Clear
7:51 AM 51.8 °F - 50.0 °F 94% 29.74 in 2.5 mi South 3.5 mph - N/A   Clear
7:54 AM 52.0 °F - 50.0 °F 93% 29.72 in 2.5 mi South 3.5 mph - N/A   Clear
8:37 AM 55.4 °F - 51.8 °F 88% 29.74 in 3.0 mi South 3.5 mph - N/A   Partly Cloudy
8:54 AM 57.0 °F - 53.1 °F 87% 29.73 in 3.0 mi Calm Calm - N/A   Partly Cloudy
9:54 AM 61.0 °F - 54.0 °F 78% 29.72 in 4.0 mi SE 9.2 mph - N/A   Haze
10:54 AM 64.0 °F - 55.0 °F 73% 29.72 in 4.0 mi SSE 12.7 mph - N/A   Haze
11:54 AM 68.0 °F - 55.9 °F 65% 29.69 in 4.0 mi SE 13.8 mph - N/A   Haze
12:54 PM 73.0 °F - 57.0 °F 57% 29.66 in 5.0 mi SE 11.5 mph - N/A   Haze
1:54 PM 80.1 °F 80.6 °F 57.9 °F 47% 29.62 in 6.0 mi ESE 8.1 mph - N/A   Haze
2:54 PM 88.0 °F - 46.9 °F 24% 29.58 in 10.0 mi SW 8.1 mph 17.3 mph N/A   Clear
3:54 PM 91.0 °F - 39.9 °F 17% 29.56 in 10.0 mi West 20.7 mph 27.6 mph N/A   Clear
4:54 PM 91.0 °F - 37.0 °F 15% 29.55 in 10.0 mi West 17.3 mph 26.5 mph N/A   Clear
5:54 PM 90.0 °F - 37.0 °F 15% 29.55 in 10.0 mi West 16.1 mph - N/A   Clear
7:54 PM 75.0 °F - 42.1 °F 31% 29.57 in 10.0 mi West 9.2 mph - N/A   Clear
8:54 PM 68.0 °F - 43.0 °F 40% 29.58 in 10.0 mi NW 8.1 mph - N/A   Clear
9:54 PM 66.0 °F - 43.0 °F 43% 29.59 in 10.0 mi NW 3.5 mph - N/A   Clear
10:54 PM 64.0 °F - 41.0 °F 43% 29.60 in 10.0 mi South 10.4 mph - N/A   Clear
11:54 PM 61.0 °F - 43.0 °F 52% 29.58 in 10.0 mi West 5.8 mph - N/A   Clear